Regional Weather Roundup
Issued by NWS

Home | Current Version | Previous Version | Text Only | Print | Product List | Glossary On
Versions: 1 2 3 4 5 6 7 8 9 10 11 12 13 14 15 16 17 18 19 20 21 22 23 24 25 26 27 28 29 30 31 32 33 34 35 36 37 38 39 40 41 42 43 44 45 46 47 48 49 50
000
ASUS44 KOUN 251800
RWROK

WEATHER ROUNDUP FOR OKLAHOMA
NATIONAL WEATHER SERVICE NORMAN OK
100 PM CDT WED MAY 25 2016

NOTE: "FAIR" INDICATES FEW OR NO CLOUDS BELOW 12,000 FEET WITH NO
      SIGNIFICANT WEATHER AND/OR OBSTRUCTIONS TO VISIBILITY.

OKZ001>007-009>012-014-015-017-251900-
NORTHWEST OKLAHOMA AND THE PANHANDLE

CITY           SKY/WX    TMP DP  RH WIND       PRES   REMARKS
GAGE           SUNNY     88  47  24 SW8       29.88S
6HR MIN TEMP:  68; 6HR MAX TEMP:  88;

GUYMON         SUNNY     84  41  21 SE5       29.90F
ENID/WOODRING  PTSUNNY   90  70  51 S23G29    29.83F HX  95
$$

OKZ016-021>023-033>039-044-045-251900-
SOUTHWEST OKLAHOMA

CITY           SKY/WX    TMP DP  RH WIND       PRES   REMARKS
LAWTON/REGL    PTSUNNY   86  73  65 S17G25    29.89F HX  93
6HR MIN TEMP:  76; 6HR MAX TEMP:  87;

FREDERICK      MOSUNNY   89  74  60 S16G23    29.87S HX  98
CLINTON        SUNNY     89  69  51 S16G23    29.90S HX  93
HOBART         SUNNY     87  72  60 S22G30    29.88F HX  93
$$

OKZ018>020-024>031-251900-
CENTRAL OKLAHOMA

CITY           SKY/WX    TMP DP  RH WIND       PRES   REMARKS
OKLAHOMA CITY  PTSUNNY   85  73  67 S17       29.90R HX  91
6HR MIN TEMP:  76; 6HR MAX TEMP:  85;

OKC/WILEY POST PTSUNNY   87  72  60 S18G31    29.88R HX  93
STILLWATER     MOSUNNY   84  73  69 S21G30    29.87F HX  90
GUTHRIE        MOSUNNY   86  72  62 S18G30    29.87F HX  92
$$

OKZ008-013-054>072-251900-
NORTHEAST OKLAHOMA

CITY           SKY/WX    TMP DP  RH WIND       PRES   REMARKS
TULSA          MOSUNNY   80  71  74 S23G31    29.89F
6HR MIN TEMP:  65; 6HR MAX TEMP:  80; 6HR PCP:  1.34;

TULSA/JONES    MOSUNNY   81  70  69 S15       29.91F
PONCA CITY     MOSUNNY   83  71  67 S15G28    29.85F
BARTLESVILLE   SUNNY     79  68  69 S12G24    29.90S
MUSKOGEE       MOSUNNY   76  68  76 SE18G28   29.97F
$$

OKZ032-040>043-046>053-073>077-251900-
SOUTH CENTRAL/SOUTHEAST OKLAHOMA

CITY           SKY/WX    TMP DP  RH WIND       PRES   REMARKS
MCALESTER      MOSUNNY   84  74  71 S10       29.98F HX  91
$$




USA.gov is the U.S. government's official web portal to all federal, state and local government web resources and services.